HELLAS-SAT 3

Last updated on Tue Oct 08 2024 00:02:40 GMT+0000 (Coordinated Universal Time)

1 42814U 17040A 24281.27757880 .00000163 00000+0 00000+0 0 9990 2 42814 0.0727 33.9382 0001043 67.6247 53.7904 1.00271162 26618
UTC large
Height (km)
Speed (km/s)
/
Latitude / Longitude
Inclination (degrees)
Orbital Period (minutes)
Azimuth
Elevation
Range (km)
Doppler Factor

Next 0 passes for location: London (51.5072 / 0.1276)

Sorry there are no passes over London.